Weather History for Missoula, MT

Change the Weather History Date:

Monday, December 2, 2013

  Actual Average Record
Temperature  
Mean Temperature 31 °F 26 °F  
Max Temperature 41 °F 34 °F 58 °F (1941)
Min Temperature 20 °F 20 °F -4 °F (1931)
Degree Days  
Heating Degree Days 34 39  
Month to date heating degree days 62 77  
Since 1 July heating degree days 1917 1973  
Cooling Degree Days 0 0  
Month to date cooling degree days 0 0  
Year to date cooling degree days 579 332  
Moisture  
Dew Point 29 °F    
Average Humidity 78    
Maximum Humidity 100    
Minimum Humidity 56    
Precipitation  
Precipitation 0.19 in 0.03 in 0.46 in (1972)
Month to date precipitation 0.32 0.07  
Year to date precipitation 8.65 13.16  
Snow  
Snow 0.50 in - - ()
Month to date snowfall 0.5  
Year to date snowfall 29.7  
Since 1 July snowfall 2.3  
Snow Depth T in    
Sea Level Pressure  
Sea Level Pressure 29.69 in    
Wind  
Wind Speed 8 mph (NW)    
Max Wind Speed 24 mph    
Max Gust Speed 35 mph    
Visibility 5 miles    
Events Fog , Rain , Snow    
T = Trace of Precipitation, MM = Missing Value Source: NWS Daily Summary

Daily Weather History Graph

Daily Weather History Graph

Search for Another Location

Airport:

Trip Planner

Search our weather history database for the weather conditions in past years. The results will help you decide how hot, cold, wet, or windy it might be!

Date:

Astronomy

Dec. 02, 2013 Rise Set
Actual Time 8:02 AM MST 4:49 PM MST
Civil Twilight 7:27 AM MST 5:23 PM MST
Nautical Twilight 6:49 AM MST 6:01 PM MST
Astronomical Twilight 6:13 AM MST 6:38 PM MST
Moon 7:29 AM MST (12/2) 4:57 PM MST (12/2)
Length of Visible Light 9h 55m
Length of Day
8h 46m
Waning Crescent, 0% of the Moon is Illuminated
Dec 2
Waning Crescent
Dec 2
New
Dec 9
First Quarter
Dec 17
Full
Dec 25
Last Quarter

Hourly Weather History & Observations

Time (MST) Temp. Windchill Dew Point Humidity Pressure Visibility Wind Dir Wind Speed Gust Speed Precip Events Conditions
12:53 AM 39.0 °F - 37.0 °F 93% 29.69 in 10.0 mi Calm Calm - 0.00 in Rain Light Rain
1:53 AM 41.0 °F 35.8 °F 37.9 °F 89% 29.66 in 10.0 mi East 8.1 mph - 0.01 in   Overcast
2:13 AM 35.6 °F 32.8 °F 35.6 °F 100% 29.62 in 1.8 mi SW 3.5 mph - 0.00 in Rain Light Rain
2:15 AM 35.6 °F 32.8 °F 35.6 °F 100% 29.61 in 1.0 mi SSW 3.5 mph - 0.00 in Rain Light Rain
2:23 AM 35.6 °F - 35.6 °F 100% 29.61 in 0.5 mi Calm Calm - 0.00 in Fog , Rain Light Rain
2:33 AM 35.6 °F - 35.6 °F 100% 29.61 in 0.5 mi Calm Calm - 0.01 in Fog , Rain Light Rain
2:43 AM 37.4 °F 34.9 °F 37.4 °F 100% 29.62 in 1.2 mi ESE 3.5 mph - 0.02 in Rain Light Rain
2:46 AM 37.4 °F 33.8 °F 37.4 °F 100% 29.62 in 2.0 mi ESE 4.6 mph - 0.02 in Rain Light Rain
2:53 AM 37.0 °F 34.5 °F 37.0 °F 100% 29.67 in 6.0 mi East 3.5 mph - 0.03 in Rain Light Rain
3:53 AM 39.0 °F 35.7 °F 37.0 °F 93% 29.63 in 10.0 mi ESE 4.6 mph - 0.02 in   Overcast
4:19 AM 35.6 °F 31.7 °F 35.6 °F 100% 29.58 in 1.8 mi WNW 4.6 mph - 0.02 in Rain Light Rain
4:26 AM 37.4 °F - 35.6 °F 93% 29.58 in 3.0 mi Calm Calm - 0.03 in Rain Light Rain
4:53 AM 36.0 °F - 36.0 °F 100% 29.63 in 5.0 mi Calm Calm - 0.04 in Rain Rain
5:38 AM 33.8 °F 30.8 °F 33.8 °F 100% 29.56 in 1.8 mi West 3.5 mph - 0.02 in Rain Light Rain
5:47 AM 35.6 °F - 35.6 °F 100% 29.56 in 2.5 mi Calm Calm - 0.02 in   Overcast
5:53 AM 35.1 °F - 35.1 °F 100% 29.62 in 8.0 mi Calm Calm - 0.02 in   Overcast
6:10 AM 35.6 °F - 35.6 °F 100% 29.56 in 1.8 mi Calm Calm - N/A   Overcast
6:13 AM 35.6 °F - 33.8 °F 93% 29.56 in 1.0 mi Calm Calm - N/A   Overcast
6:19 AM 33.8 °F 28.6 °F 33.8 °F 100% 29.57 in 0.8 mi South 5.8 mph - N/A   Overcast
6:30 AM 35.6 °F 28.6 °F 33.8 °F 93% 29.58 in 1.2 mi WSW 9.2 mph - N/A   Overcast
6:32 AM 35.6 °F 30.7 °F 35.6 °F 100% 29.58 in 2.0 mi Variable 5.8 mph - N/A   Overcast
6:40 AM 37.4 °F - 37.4 °F 100% 29.58 in 9.0 mi Calm Calm - N/A   Overcast
6:53 AM 37.9 °F - 36.0 °F 93% 29.63 in 10.0 mi Calm Calm - N/A   Overcast
7:53 AM 41.0 °F - 33.1 °F 73% 29.61 in 10.0 mi Calm Calm - 0.00 in   Overcast
8:53 AM 37.9 °F 32.1 °F 34.0 °F 86% 29.60 in 10.0 mi South 8.1 mph - N/A   Overcast
9:53 AM 37.9 °F 32.7 °F 35.1 °F 89% 29.61 in 10.0 mi West 6.9 mph - 0.00 in Rain Light Rain
10:08 AM 37.4 °F 27.8 °F 33.8 °F 87% 29.59 in 10.0 mi NNW 17.3 mph 23.0 mph 0.00 in Rain Light Rain
10:35 AM 35.6 °F 27.1 °F 32.0 °F 87% 29.60 in 6.0 mi NNW 12.7 mph 23.0 mph 0.00 in Snow Light Snow
10:53 AM 34.0 °F 22.7 °F 30.9 °F 89% 29.69 in 6.0 mi NW 19.6 mph 27.6 mph 0.00 in Snow Light Snow
11:02 AM 33.8 °F 21.3 °F 30.2 °F 87% 29.63 in 3.0 mi NW 24.2 mph 31.1 mph 0.00 in Snow Light Snow
11:07 AM 33.8 °F 22.2 °F 30.2 °F 87% 29.63 in 1.5 mi NW 20.7 mph 31.1 mph 0.00 in Snow Light Snow
11:11 AM 33.8 °F 22.8 °F 30.2 °F 87% 29.64 in 1.0 mi NW 18.4 mph 31.1 mph 0.00 in Snow Light Snow
11:20 AM 33.8 °F 23.5 °F 30.2 °F 87% 29.63 in 2.0 mi NW 16.1 mph 28.8 mph 0.00 in Snow Light Snow
11:35 AM 33.8 °F 24.8 °F 30.2 °F 87% 29.64 in 4.0 mi WNW 12.7 mph - 0.00 in Snow Light Snow
11:53 AM 34.0 °F 22.7 °F 26.1 °F 73% 29.71 in 4.0 mi West 19.6 mph 31.1 mph 0.00 in Snow Light Snow
12:53 PM 35.1 °F 29.3 °F 24.1 °F 64% 29.72 in 10.0 mi SW 6.9 mph - 0.00 in   Overcast
1:53 PM 35.1 °F 26.4 °F 21.0 °F 57% 29.71 in 10.0 mi WSW 12.7 mph - N/A   Overcast
2:53 PM 34.0 °F 27.2 °F 19.9 °F 56% 29.73 in 10.0 mi West 8.1 mph - N/A   Partly Cloudy
3:53 PM 32.0 °F 26.4 °F 19.9 °F 61% 29.75 in 10.0 mi WSW 5.8 mph - N/A   Partly Cloudy
4:53 PM 30.9 °F 22.8 °F 21.0 °F 67% 29.77 in 10.0 mi West 9.2 mph - N/A   Scattered Clouds
5:53 PM 30.9 °F - 19.9 °F 64% 29.80 in 10.0 mi Calm Calm - N/A   Mostly Cloudy
6:53 PM 28.9 °F 25.2 °F 21.9 °F 75% 29.81 in 10.0 mi NNW 3.5 mph - N/A   Mostly Cloudy
7:53 PM 28.9 °F - 21.9 °F 75% 29.82 in 10.0 mi Calm Calm - N/A   Overcast
8:25 PM 28.4 °F 16.2 °F 19.4 °F 69% 29.76 in 8.0 mi NNE 17.3 mph 23.0 mph 0.00 in Snow Light Snow
8:53 PM 26.1 °F 12.3 °F 19.0 °F 75% 29.85 in 5.0 mi NNE 19.6 mph 27.6 mph 0.00 in Snow Light Snow
9:10 PM 26.6 °F 13.4 °F 19.4 °F 74% 29.78 in 6.0 mi NNE 18.4 mph 28.8 mph 0.00 in Snow Light Snow
9:53 PM 24.1 °F 10.1 °F 16.0 °F 71% 29.88 in 10.0 mi North 18.4 mph 27.6 mph 0.00 in   Overcast
10:18 PM 23.0 °F 8.7 °F 15.8 °F 74% 29.82 in 6.0 mi NNE 18.4 mph 31.1 mph 0.00 in Snow Light Snow
10:27 PM 21.2 °F 6.4 °F 15.8 °F 80% 29.84 in 1.5 mi NNE 18.4 mph 29.9 mph 0.00 in Snow Light Snow
10:30 PM 21.2 °F 6.4 °F 15.8 °F 80% 29.84 in 1.0 mi NNE 18.4 mph 27.6 mph 0.00 in Snow Light Snow
10:38 PM 21.2 °F 4.9 °F 15.8 °F 80% 29.85 in 0.8 mi NNE 23.0 mph 32.2 mph 0.01 in Snow Light Snow
10:41 PM 21.2 °F 6.4 °F 15.8 °F 80% 29.85 in 0.5 mi North 18.4 mph 32.2 mph 0.01 in Snow Snow
10:53 PM 21.0 °F 6.2 °F 16.0 °F 81% 29.96 in 0.5 mi NNE 18.4 mph 25.3 mph 0.02 in Snow Snow
11:53 PM 19.9 °F 7.3 °F 15.1 °F 81% 30.00 in 1.0 mi NNE 12.7 mph 24.2 mph 0.03 in Snow Light Snow